JAF555 EGKK-EBBR

Flight info

Callsign JAF555
Flight time 0h 38m
Altitude 23000
Route DVR L18 VABIK Q70 KOK
Aircraft B38M/M-SDFGHIRWXYZ/LB1

Departure

Time 2026-05-04 12:29
Airport London Gatwick Airport (EGKK)

Arrival

Time 2026-05-04 13:07
Airport Brussels Airport (EBBR)
Time Latitude Longitude Altitude Speed Heading
2026-05-04 11:44 51.15580 -0.17684 216 ft 0 kts 347°
2026-05-04 12:12 51.15575 -0.17682 214 ft 4 kts 347°
2026-05-04 12:12 51.15553 -0.17675 215 ft 3 kts 346°
2026-05-04 12:12 51.15531 -0.17657 209 ft 4 kts 302°
2026-05-04 12:13 51.15524 -0.17619 206 ft 4 kts 261°
2026-05-04 12:14 51.15529 -0.17586 208 ft 0 kts 258°
2026-05-04 12:16 51.15529 -0.17588 207 ft 1 kts 258°
2026-05-04 12:16 51.15525 -0.17611 206 ft 4 kts 258°
2026-05-04 12:17 51.15515 -0.17686 216 ft 10 kts 258°
2026-05-04 12:17 51.15497 -0.17821 206 ft 14 kts 258°
2026-05-04 12:17 51.15474 -0.17987 216 ft 16 kts 257°
2026-05-04 12:17 51.15448 -0.18177 214 ft 19 kts 258°
2026-05-04 12:18 51.15369 -0.18273 212 ft 17 kts 167°
2026-05-04 12:18 51.15244 -0.18229 215 ft 19 kts 172°
2026-05-04 12:18 51.15182 -0.18358 208 ft 18 kts 258°
2026-05-04 12:18 51.15154 -0.18566 210 ft 20 kts 257°
2026-05-04 12:19 51.15121 -0.18798 207 ft 22 kts 258°
2026-05-04 12:19 51.15087 -0.19050 215 ft 24 kts 258°
2026-05-04 12:19 51.15051 -0.19321 212 ft 26 kts 258°
2026-05-04 12:19 51.15012 -0.19608 217 ft 27 kts 258°
2026-05-04 12:20 51.14972 -0.19890 215 ft 25 kts 258°
2026-05-04 12:20 51.14935 -0.20153 210 ft 24 kts 257°
2026-05-04 12:20 51.14900 -0.20408 214 ft 18 kts 257°
2026-05-04 12:20 51.14877 -0.20570 208 ft 16 kts 257°
2026-05-04 12:21 51.14852 -0.20756 210 ft 18 kts 258°
2026-05-04 12:21 51.14823 -0.20966 212 ft 20 kts 258°
2026-05-04 12:21 51.14790 -0.21171 212 ft 17 kts 246°
2026-05-04 12:21 51.14758 -0.21355 210 ft 15 kts 257°
2026-05-04 12:22 51.14731 -0.21407 215 ft 0 kts 180°
2026-05-04 12:27 51.14718 -0.21405 215 ft 5 kts 175°
2026-05-04 12:27 51.14671 -0.21375 208 ft 10 kts 142°
2026-05-04 12:27 51.14598 -0.21321 212 ft 14 kts 164°
2026-05-04 12:27 51.14521 -0.21208 208 ft 17 kts 103°
2026-05-04 12:28 51.14542 -0.21004 216 ft 24 kts 78°
2026-05-04 12:28 51.14625 -0.20405 215 ft 88 kts 77°
2026-05-04 12:28 51.14801 -0.19138 219 ft 144 kts 78°
2026-05-04 12:28 51.15043 -0.17363 312 ft 180 kts 78°
2026-05-04 12:29 51.15316 -0.15413 1006 ft 180 kts 77°
2026-05-04 12:29 51.15579 -0.13477 1595 ft 178 kts 78°
2026-05-04 12:29 51.15833 -0.11574 2005 ft 175 kts 77°
2026-05-04 12:29 51.16092 -0.09695 2397 ft 172 kts 77°
2026-05-04 12:30 51.16349 -0.07838 2750 ft 173 kts 77°
2026-05-04 12:30 51.16613 -0.05933 2997 ft 180 kts 77°
2026-05-04 12:30 51.16878 -0.03915 3240 ft 190 kts 83°
2026-05-04 12:30 51.16865 -0.01752 3393 ft 200 kts 92°
2026-05-04 12:31 51.16821 0.00505 3569 ft 207 kts 91°
2026-05-04 12:31 51.16782 0.02781 3671 ft 207 kts 91°
2026-05-04 12:31 51.16742 0.05078 3998 ft 208 kts 91°
2026-05-04 12:31 51.16699 0.07438 4272 ft 219 kts 91°
2026-05-04 12:32 51.16653 0.09951 4612 ft 234 kts 92°
2026-05-04 12:32 51.16561 0.15349 5588 ft 250 kts 89°
2026-05-04 12:32 51.16618 0.18139 6146 ft 254 kts 91°
2026-05-04 12:33 51.16580 0.21008 6573 ft 264 kts 92°
2026-05-04 12:33 51.16559 0.24015 6884 ft 278 kts 91°
2026-05-04 12:33 51.16573 0.27120 7234 ft 290 kts 90°
2026-05-04 12:33 51.16588 0.30366 7736 ft 296 kts 91°
2026-05-04 12:34 51.16591 0.33667 8257 ft 301 kts 91°
2026-05-04 12:34 51.16588 0.37064 8614 ft 313 kts 91°
2026-05-04 12:34 51.16586 0.40584 9046 ft 321 kts 91°
2026-05-04 12:34 51.16586 0.44169 9567 ft 327 kts 91°
2026-05-04 12:35 51.16587 0.47806 10097 ft 331 kts 90°
2026-05-04 12:35 51.16780 0.51486 10577 ft 336 kts 85°
2026-05-04 12:35 51.16993 0.55219 11104 ft 340 kts 86°
2026-05-04 12:35 51.17193 0.58992 11629 ft 344 kts 86°
2026-05-04 12:36 51.17419 0.62829 12175 ft 347 kts 85°
2026-05-04 12:36 51.17649 0.66603 12943 ft 342 kts 85°
2026-05-04 12:36 51.17869 0.70354 13734 ft 338 kts 86°
2026-05-04 12:36 51.18078 0.74062 14443 ft 333 kts 86°
2026-05-04 12:37 51.18287 0.77709 15146 ft 327 kts 86°
2026-05-04 12:37 51.18492 0.81285 15868 ft 321 kts 86°
2026-05-04 12:37 51.18625 0.83616 16346 ft 316 kts 86°
2026-05-04 12:37 51.18883 0.88170 17326 ft 305 kts 87°
2026-05-04 12:38 51.19069 0.91490 18070 ft 296 kts 87°
2026-05-04 12:38 51.19249 0.94703 18762 ft 286 kts 87°
2026-05-04 12:38 51.19423 0.97834 19067 ft 289 kts 87°
2026-05-04 12:38 51.19601 1.01116 19044 ft 305 kts 87°
2026-05-04 12:39 51.19728 1.03428 19059 ft 315 kts 87°
2026-05-04 12:39 51.19924 1.06984 19100 ft 329 kts 86°
2026-05-04 12:39 51.20127 1.10692 19149 ft 342 kts 86°
2026-05-04 12:39 51.20336 1.14546 19208 ft 355 kts 86°
2026-05-04 12:40 51.20551 1.18534 19275 ft 368 kts 86°
2026-05-04 12:40 51.20769 1.22608 19371 ft 379 kts 86°
2026-05-04 12:40 51.20994 1.26836 19555 ft 386 kts 86°
2026-05-04 12:40 51.21221 1.31137 19814 ft 392 kts 86°
2026-05-04 12:41 51.21453 1.35557 20127 ft 397 kts 86°
2026-05-04 12:41 51.21679 1.39905 20437 ft 400 kts 87°
2026-05-04 12:41 51.21909 1.44344 20769 ft 403 kts 87°
2026-05-04 12:41 51.22138 1.48816 21116 ft 406 kts 87°
2026-05-04 12:42 51.22367 1.53322 21472 ft 408 kts 87°
2026-05-04 12:42 51.22596 1.57841 21840 ft 410 kts 87°
2026-05-04 12:42 51.22823 1.62386 22215 ft 411 kts 87°
2026-05-04 12:42 51.23050 1.66949 22585 ft 413 kts 87°
2026-05-04 12:43 51.23276 1.71534 22944 ft 414 kts 87°
2026-05-04 12:43 51.23500 1.76104 23005 ft 412 kts 87°
2026-05-04 12:43 51.23721 1.80638 23012 ft 409 kts 87°
2026-05-04 12:43 51.23938 1.85158 23015 ft 408 kts 87°
2026-05-04 12:44 51.24153 1.89679 23012 ft 408 kts 88°
2026-05-04 12:44 51.24368 1.94204 23023 ft 413 kts 88°
2026-05-04 12:44 51.24579 1.98836 23024 ft 424 kts 90°
2026-05-04 12:44 51.24482 2.03585 23028 ft 432 kts 97°
2026-05-04 12:45 51.24246 2.08414 23027 ft 443 kts 97°
2026-05-04 12:45 51.24000 2.13382 23029 ft 453 kts 97°
2026-05-04 12:45 51.23760 2.18440 23028 ft 463 kts 96°
2026-05-04 12:45 51.23519 2.23573 23024 ft 464 kts 97°
2026-05-04 12:46 51.23271 2.28647 23019 ft 465 kts 97°
2026-05-04 12:46 51.22971 2.33794 23018 ft 463 kts 102°
2026-05-04 12:46 51.22189 2.38740 23018 ft 460 kts 112°
2026-05-04 12:46 51.20851 2.43383 23024 ft 461 kts 123°
2026-05-04 12:47 51.19016 2.47528 23026 ft 455 kts 133°
2026-05-04 12:47 51.16955 2.51356 23019 ft 455 kts 133°
2026-05-04 12:47 51.14881 2.55178 23020 ft 455 kts 134°
2026-05-04 12:47 51.12809 2.58999 23021 ft 455 kts 133°
2026-05-04 12:48 51.10908 2.63031 23020 ft 459 kts 124°
2026-05-04 12:48 51.09481 2.67592 23009 ft 463 kts 113°
2026-05-04 12:48 51.08593 2.72496 23005 ft 457 kts 104°
2026-05-04 12:48 51.08002 2.77394 22823 ft 448 kts 103°
2026-05-04 12:49 51.07424 2.82269 22683 ft 448 kts 103°
2026-05-04 12:49 51.06844 2.87096 22514 ft 439 kts 103°
2026-05-04 12:49 51.06273 2.91794 22326 ft 426 kts 103°
2026-05-04 12:49 51.05713 2.96374 22008 ft 417 kts 103°
2026-05-04 12:50 51.05166 3.00860 21610 ft 410 kts 103°
2026-05-04 12:50 51.04631 3.05236 21168 ft 406 kts 103°
2026-05-04 12:50 51.04094 3.09612 20717 ft 401 kts 103°
2026-05-04 12:50 51.03558 3.13953 20264 ft 397 kts 102°
2026-05-04 12:51 51.03027 3.18254 19814 ft 394 kts 102°
2026-05-04 12:51 51.02500 3.22500 19369 ft 391 kts 102°
2026-05-04 12:51 51.01976 3.26713 19072 ft 386 kts 102°
2026-05-04 12:51 51.01459 3.30864 18869 ft 379 kts 102°
2026-05-04 12:52 51.00946 3.34954 18630 ft 375 kts 102°
2026-05-04 12:52 51.00439 3.38990 18351 ft 371 kts 101°
2026-05-04 12:52 50.99936 3.42992 18029 ft 368 kts 101°
2026-05-04 12:52 50.99442 3.46910 17696 ft 366 kts 102°
2026-05-04 12:53 50.98941 3.50865 17360 ft 363 kts 101°
2026-05-04 12:53 50.98443 3.54780 17020 ft 361 kts 102°
2026-05-04 12:53 50.97946 3.58684 16692 ft 359 kts 102°
2026-05-04 12:53 50.97452 3.62553 16359 ft 357 kts 102°
2026-05-04 12:54 50.96958 3.66403 15978 ft 355 kts 102°
2026-05-04 12:54 50.96464 3.70227 15546 ft 353 kts 102°
2026-05-04 12:54 50.95977 3.74047 15110 ft 352 kts 102°
2026-05-04 12:54 50.95489 3.77851 14677 ft 351 kts 102°
2026-05-04 12:55 50.94994 3.81644 14245 ft 350 kts 103°
2026-05-04 12:55 50.94503 3.85422 13821 ft 350 kts 103°
2026-05-04 12:55 50.94012 3.89193 13364 ft 349 kts 103°
2026-05-04 12:55 50.93522 3.92948 12933 ft 347 kts 103°
2026-05-04 12:56 50.93040 3.96632 12515 ft 345 kts 103°
2026-05-04 12:56 50.92744 4.00388 12097 ft 343 kts 89°
2026-05-04 12:56 50.92881 4.04164 11640 ft 343 kts 86°
2026-05-04 12:56 50.93082 4.07928 11187 ft 343 kts 86°
2026-05-04 12:57 50.93269 4.11693 10734 ft 342 kts 86°
2026-05-04 12:57 50.93425 4.15461 10287 ft 341 kts 87°
2026-05-04 12:57 50.93580 4.19213 9831 ft 341 kts 86°
2026-05-04 12:57 50.93746 4.22960 9360 ft 339 kts 86°
2026-05-04 12:58 50.93912 4.26678 8913 ft 337 kts 86°
2026-05-04 12:58 50.94070 4.30380 8470 ft 335 kts 86°
2026-05-04 12:58 50.94223 4.34007 8034 ft 333 kts 86°
2026-05-04 12:58 50.94377 4.37661 7587 ft 331 kts 86°
2026-05-04 12:59 50.94531 4.41291 7168 ft 329 kts 86°
2026-05-04 12:59 50.94681 4.44915 6733 ft 330 kts 86°
2026-05-04 12:59 50.94831 4.48560 6336 ft 330 kts 88°
2026-05-04 12:59 50.94698 4.52192 5844 ft 331 kts 90°
2026-05-04 13:00 50.95051 4.55773 5414 ft 330 kts 67°
2026-05-04 13:00 50.96210 4.58908 5002 ft 329 kts 53°
2026-05-04 13:00 50.97627 4.61743 4630 ft 326 kts 50°
2026-05-04 13:00 50.99083 4.64443 4270 ft 323 kts 49°
2026-05-04 13:01 51.00497 4.67015 3894 ft 293 kts 48°
2026-05-04 13:01 51.01785 4.69351 3582 ft 270 kts 48°
2026-05-04 13:01 51.03016 4.71582 3337 ft 270 kts 49°
2026-05-04 13:01 51.03946 4.74148 3092 ft 271 kts 80°
2026-05-04 13:02 51.03823 4.77091 3034 ft 269 kts 108°
2026-05-04 13:02 51.03169 4.79888 2975 ft 269 kts 113°
2026-05-04 13:02 51.02218 4.82388 3002 ft 265 kts 140°
2026-05-04 13:02 51.00603 4.83673 3008 ft 262 kts 172°
2026-05-04 13:03 50.98843 4.83469 2999 ft 255 kts 201°
2026-05-04 13:03 50.97349 4.82066 3036 ft 243 kts 223°
2026-05-04 13:03 50.96376 4.80080 2991 ft 215 kts 242°
2026-05-04 13:03 50.95796 4.78023 2973 ft 200 kts 249°
2026-05-04 13:04 50.95327 4.75927 2975 ft 202 kts 250°
2026-05-04 13:04 50.95116 4.73766 2992 ft 200 kts 277°
2026-05-04 13:04 50.94902 4.71599 2827 ft 208 kts 239°
2026-05-04 13:04 50.94134 4.69667 2519 ft 202 kts 240°
2026-05-04 13:05 50.93471 4.67672 2248 ft 204 kts 246°
2026-05-04 13:05 50.92943 4.65627 1972 ft 199 kts 251°
2026-05-04 13:05 50.92477 4.63547 1702 ft 199 kts 251°
2026-05-04 13:05 50.92016 4.61482 1433 ft 199 kts 251°
2026-05-04 13:06 50.91539 4.59447 1161 ft 197 kts 250°
2026-05-04 13:06 50.91060 4.57413 825 ft 196 kts 249°
2026-05-04 13:06 50.90620 4.55543 547 ft 166 kts 252°
2026-05-04 13:06 50.90265 4.53937 367 ft 139 kts 249°
2026-05-04 13:07 50.89950 4.52541 244 ft 134 kts 250°
2026-05-04 13:07 50.89649 4.51260 174 ft 97 kts 249°
2026-05-04 13:07 50.89474 4.50507 176 ft 57 kts 250°
2026-05-04 13:07 50.89352 4.49978 178 ft 47 kts 250°
2026-05-04 13:08 50.89398 4.49620 170 ft 32 kts 306°
2026-05-04 13:08 50.89529 4.49333 163 ft 32 kts 306°
2026-05-04 13:08 50.89681 4.49153 151 ft 28 kts 23°
2026-05-04 13:08 50.89878 4.49228 140 ft 31 kts 14°
2026-05-04 13:09 50.90093 4.49323 131 ft 31 kts 16°
2026-05-04 13:09 50.90300 4.49404 125 ft 27 kts 356°
2026-05-04 13:09 50.90330 4.49334 126 ft 4 kts 244°
2026-05-04 13:09 50.90310 4.49265 125 ft 10 kts 245°
2026-05-04 13:10 50.90272 4.49136 126 ft 16 kts 245°
2026-05-04 13:10 50.90225 4.48974 127 ft 16 kts 246°
2026-05-04 13:10 50.90188 4.48919 127 ft 4 kts 163°
2026-05-04 13:10 50.90164 4.48933 126 ft 3 kts 156°
2026-05-04 13:11 50.90149 4.48944 127 ft 2 kts 156°
2026-05-04 13:11 50.90138 4.48952 131 ft 0 kts 156°